sat.trackr.live / text

‹ back to catalog

STARLINK-31176

NORAD 58745 · 2024-005T

PAYLOAD ACTIVE UNKNOWN

§ Identity

Operator
Country
US
Launch date
2024-01-07
Launch site
AFETR
Launch vehicle
Mass (kg)
RCS (m²)

Purposes: comms

External: N2YO · Heavens-Above · Gunter

§ Orbital elements

Epoch: 2026-09-19T13:34:46.880832Z

Period
94.27 min
Inclination
43.0051°
Eccentricity
0.0001235
Mean motion
15.27574299 rev/d
Perigee alt
482.2 km
Apogee alt
483.9 km
Semi-major
6,861.2 km
B*
1.7604e-5
RAAN
204.9247°
Arg perigee
266.6128°
Mean anomaly
93.4583°
Rev number
15,013

§ Raw data

STARLINK-311761 58745U 24005T   26262.56582038  .00000222  00000+0  17604-4 0  99922 58745  43.0051 204.9247 0001235 266.6128  93.4583 15.27574299150137

JSON: /api/v1/satellites/58745 · /tle

For live sub-satellite position, see the globe view (requires WebGL).

§ Visibility from observer

Set your observer location to see the next 7 days of passes ≥ 10°. The values pass through the URL so the page stays shareable.

No JS? Fill the form by hand. The geolocation button needs JavaScript.